SCOUT G-1 R/B

Satellite information

Favourite Embed

Satellite Type and Status

ROCKET BODYIN ORBIT

Key statistics

Satellite SCOUT G-1 R/B at a glance.

Uptime

12426

Days in orbit

Revolutions

≈ 14.3

Per day

Orbit

LEO

Low Earth Orbit

Inclination

89.5

Latest

Satellite identification and parameters

Extended collection of information and parameters for SCOUT G-1 R/B.

Object identification

Identified? True

Debris? False

Object name: SCOUT G-1 R/B

International designator: 1991-045B

Object number (NORAD): 21528

Object ID (CCSDS): 21528

Country: UNITED STATES OF AMERICA (US)

Current information (Y/N): Y

RCS size: MEDIUM

Orbital parameters

Period: 100.885 minutes

Inclination: 89.5299 deg

SMA: 7178.681 km

Apoapsis: 846.551 km

Periapsis: 754.541 km

RAAN: 279.0985 deg

Eccentricy: 0.0064086

Argument of periapsis: 272.8384 deg

Mean anomaly: 198.9942 deg

Mean motion: 14.27367469 rev/day

Mean motion (dot): 0.00000208 rev/day2

B* drag term: 0.000078357 1/REarth

Two-line elements (TLE)

Creation date: July 5, 2025, 10:46 p.m.

Reference frame: TEME

Reference center: EARTH

Epoch: July 5, 2025, 7:01 p.m. UTC

TLE line 0: 0 SCOUT G-1 R/B

TLE line 1: 1 21528U 91045B 25186.79271397 .00000208 00000-0 78357-4 0 9998

TLE line 2: 2 21528 89.5299 279.0985 0064086 272.8384 198.9942 14.27367469768383

Live tracking on map

Real-time ground track for satellite SCOUT G-1 R/B.

In-orbit conjunctions

A list of the most updated potential collisions computed for object SCOUT G-1 R/B.

Target Orbit TCA Probability of collision Miss distance Type
NOAA 16 DEB SSO 2025-04-04 11:06:54 0.0002370255 398.0 (m) DEBRIS
METEOR 2-5 DEB LEO 2025-03-24 18:23:21 0.0001243061 500.0 (m) DEBRIS
FENGYUN 1C DEB SSO 2025-02-18 18:31:13 0.002215314 64.0 (m) DEBRIS
CZ-6A DEB LEO 2024-12-03 06:04:36 0.001362485 435.0 (m) DEBRIS
FENGYUN 1C DEB SSO 2024-11-02 23:09:28 0.0001386978 296.0 (m) DEBRIS

Associated space launch

REX (Radiation Experiment) or ISES (Integrated Space Experiment System) was an Air Force Rome Laboratory ionospheric research satellite which tested the effects of the atmosphere on radio transmissions, and employed GPS for on-board navigation and attitude control.

SCOUT G-1 R/B was lifted into orbit during the mission ‘Scout G-1 | REX’, on board a Scout G-1 space rocket.

The launch took place on June 29, 1991, 2 p.m. from Space Launch Complex 5.

For more information about the launch, click the button.

Launch to space Scout G-1 | REX
Scout G-1 | REX

Agency: N/A

Status: Launch Successful

Launch date: June 29, 1991, 2 p.m. UTC

Rocket: Scout G-1

Launch pad: Space Launch Complex 5

Location: Vandenberg SFB, CA, USA

...

Latest news about this satellite

There are no fresh news available about this satellite. Check back as we update our databases every day.


Newsletter sign-up

Weekly statistics, charts and insights to help you stay on top of the space industry.